DW2738 Weather Reports


Display with metric or nautical units.
time (UTC)temp
F
wind
direction
speed
MPH
gust
MPH
rain 1hr
in
rain 24hr
in
rain mn
in
humidity
%
barometer
mb
20260502170349 59 254 2.0 3.0 0.00 0.00 0.00 61 1011.3
20260502164336 59 267 3.0 4.0 0.00 0.00 0.00 64 1011.5
20260502163832 59 250 4.0 5.0 0.00 0.00 0.00 65 1011.6
20260502163328 59 205 3.0 4.0 0.00 0.00 0.00 66 1011.6
20260502162826 58 237 3.0 3.0 0.00 0.00 0.00 66 1011.7
20260502162322 58 259 2.0 3.0 0.00 0.00 0.00 68 1011.9
20260502161820 58 258 2.0 3.0 0.00 0.00 0.00 66 1012.1
20260502161315 58 278 0.0 3.0 0.00 0.00 0.00 67 1011.9
20260502160813 57 255 3.0 4.0 0.00 0.00 0.00 68 1012.1
20260502160312 58 251 1.0 4.0 0.00 0.00 0.00 66 1012.3
20260502152247 58 240 3.0 5.0 0.00 0.00 0.00 66 1011.9
20260502151744 59 270 3.0 5.0 0.00 0.00 0.00 66 1011.7
20260502151241 58 254 3.0 3.0 0.00 0.00 0.00 66 1011.8
20260502150739 58 279 0.0 3.0 0.00 0.00 0.00 68 1011.6
20260502150236 58 175 0.0 4.0 0.00 0.00 0.00 69 1011.7
20260502130624 55 258 3.0 4.0 0.00 0.00 0.00 78 1012.2
20260502130122 55 262 0.0 2.0 0.00 0.00 0.00 80 1012.1
20260502123607 55 240 3.0 3.0 0.00 0.00 0.00 80 1012.1
20260502123104 55 237 2.0 3.0 0.00 0.00 0.00 81 1012.2
20260502122600 55 270 0.0 3.0 0.00 0.00 0.00 80 1012.3
20260502122057 55 255 1.0 4.0 0.00 0.00 0.00 81 1012.4
20260502121555 54 237 0.0 4.0 0.00 0.00 0.00 81 1012.6
20260502121052 53 258 1.0 3.0 0.00 0.00 0.00 83 1012.4
20260502120548 54 206 2.0 3.0 0.00 0.00 0.00 83 1012.2
20260502115544 53 243 1.0 3.0 0.00 0.00 0.00 85 1012.2
20260502115039 51 253 2.0 3.0 0.00 0.00 0.00 87 1012.1
20260502114536 51 270 1.0 2.0 0.00 0.00 0.00 88 1012.0
20260502114033 50 270 1.0 2.0 0.00 0.00 0.00 90 1012.0
20260502113531 50 249 1.0 2.0 0.00 0.00 0.00 91 1012.0
20260502113029 49 264 0.0 2.0 0.00 0.00 0.00 93 1012.0
20260502112526 48 246 0.0 1.0 0.00 0.00 0.00 96 1012.3
20260502112024 48 253 2.0 2.0 0.00 0.00 0.00 96 1012.1
20260502111521 48 234 0.0 2.0 0.00 0.00 0.00 97 1011.9
20260502111018 47 246 0.0 1.0 0.00 0.00 0.00 97 1012.1
20260502110515 47 254 0.0 0.0 0.00 0.00 0.00 97 1012.0
20260502110013 47 243 0.0 1.0 0.00 0.00 0.00 97 1012.0
20260502105510 46 234 0.0 1.0 0.00 0.00 0.00 97 1012.0
20260502105008 46 254 0.0 0.0 0.00 0.00 0.00 97 1012.1
20260502104505 46 254 0.0 0.0 0.00 0.00 0.00 97 1012.0
20260502104002 46 254 0.0 0.0 0.00 0.00 0.00 97 1012.0
20260502103459 46 254 0.0 0.0 0.00 0.00 0.00 97 1011.7
20260502102956 46 254 0.0 0.0 0.00 0.00 0.00 97 1011.9
20260502102454 46 254 0.0 0.0 0.00 0.00 0.00 97 1011.6
20260502101950 46 254 0.0 0.0 0.00 0.00 0.00 97 1011.5
20260502101449 46 254 0.0 0.0 0.00 0.00 0.00 97 1011.5
20260502100947 46 254 0.0 0.0 0.00 0.00 0.00 96 1011.5
20260502100445 46 188 0.0 0.0 0.00 0.00 0.00 96 1011.6
20260502091420 47 261 0.0 0.0 0.00 0.00 0.00 95 1011.7
20260502090916 48 261 0.0 1.0 0.00 0.00 0.00 96 1011.4
20260502090414 48 294 0.0 1.0 0.00 0.00 0.00 95 1011.3
20260502071308 49 270 1.0 1.0 0.00 0.00 0.00 92 1011.8
20260502070807 49 240 1.0 3.0 0.00 0.00 0.00 92 1011.8
20260502070304 49 243 2.0 2.0 0.00 0.00 0.00 93 1011.6
20260502065803 49 210 0.0 2.0 0.00 0.00 0.00 93 1011.9
20260502065300 49 258 2.0 3.0 0.00 0.00 0.00 93 1011.7
20260502064758 49 188 0.0 2.0 0.00 0.00 0.00 93 1011.6
20260502064256 49 209 2.0 3.0 0.00 0.00 0.00 93 1011.7
20260502063753 49 249 1.0 2.0 0.00 0.00 0.00 93 1011.8
20260502063251 49 172 0.0 2.0 0.00 0.00 0.00 93 1011.5
20260502062748 49 180 0.0 1.0 0.00 0.00 0.00 93 1011.9
20260502062245 49 15 0.0 0.0 0.00 0.00 0.00 92 1011.8
20260502061744 49 157 0.0 1.0 0.00 0.00 0.00 92 1012.0
20260502061242 49 212 1.0 3.0 0.00 0.00 0.00 92 1011.9
20260502060741 50 225 0.0 3.0 0.00 0.00 0.00 92 1012.0
20260502060237 50 120 0.0 2.0 0.00 0.00 0.00 92 1012.1
20260502055736 50 203 1.0 2.0 0.00 0.00 0.00 92 1011.9
20260502055233 50 172 0.0 2.0 0.00 0.00 0.00 92 1011.9
20260502054732 49 135 2.0 2.0 0.00 0.00 0.00 92 1012.0
20260502054229 50 240 1.0 2.0 0.00 0.00 0.00 92 1012.2
20260502053727 50 173 0.0 2.0 0.00 0.00 0.00 91 1012.1
20260502053224 50 180 0.0 3.0 0.00 0.00 0.00 91 1012.2
20260502052722 50 186 1.0 3.0 0.00 0.00 0.00 92 1012.5
20260502052220 50 144 0.0 3.0 0.00 0.00 0.00 92 1012.3
20260502051717 49 212 0.0 2.0 0.00 0.00 0.00 92 1012.5
20260502051216 49 277 1.0 3.0 0.00 0.00 0.00 92 1012.3
20260502050711 49 148 1.0 3.0 0.00 0.00 0.00 93 1012.5
20260502050208 49 206 0.0 2.0 0.00 0.00 0.00 93 1012.5
20260502045705 49 120 0.0 1.0 0.00 0.00 0.00 93 1012.6
20260502045202 49 200 0.0 2.0 0.00 0.00 0.00 93 1012.4
20260502044659 49 229 0.0 2.0 0.00 0.00 0.00 93 1012.3
20260502044155 49 195 0.0 1.0 0.00 0.00 0.00 93 1012.4
20260502043653 49 249 0.0 3.0 0.00 0.00 0.00 94 1012.2
20260502043150 49 233 2.0 2.0 0.00 0.00 0.00 94 1012.3
20260502042649 49 239 0.0 3.0 0.00 0.00 0.00 95 1012.6
20260502042146 48 262 0.0 3.0 0.00 0.00 0.00 95 1012.6
20260502041644 48 240 0.0 2.0 0.00 0.00 0.00 94 1012.4
20260502041141 48 253 2.0 4.0 0.00 0.00 0.00 95 1012.5
20260502040638 48 180 2.0 3.0 0.00 0.00 0.00 96 1012.3
20260502040135 48 225 2.0 3.0 0.00 0.00 0.00 96 1012.1
20260502035631 47 151 1.0 4.0 0.00 0.00 0.00 96 1011.8
20260502035128 46 157 1.0 2.0 0.00 0.00 0.00 96 1012.0
20260502034626 46 165 0.0 1.0 0.00 0.00 0.00 95 1012.1
20260502034125 46 320 0.0 0.0 0.00 0.00 0.00 95 1011.8
20260502033622 46 320 0.0 1.0 0.00 0.00 0.00 94 1011.9
20260502033120 46 14 0.0 0.0 0.00 0.00 0.00 94 1012.0
20260502032615 46 157 0.0 0.0 0.00 0.00 0.00 94 1012.2
20260502032112 46 120 0.0 0.0 0.00 0.00 0.00 93 1012.0
20260502031610 47 180 0.0 0.0 0.00 0.00 0.00 93 1012.2
20260502031107 47 180 0.0 2.0 0.00 0.00 0.00 93 1012.3
20260502030606 48 249 1.0 1.0 0.00 0.00 0.00 93 1012.5
20260502025600 48 270 0.0 1.0 0.00 0.00 0.00 92 1012.5
20260502025058 48 172 0.0 2.0 0.00 0.00 0.00 92 1012.5
20260502024556 48 132 0.0 2.0 0.00 0.00 0.00 91 1012.1
20260502024054 48 145 0.0 3.0 0.00 0.00 0.00 91 1012.4
20260502023551 47 127 2.0 2.0 0.00 0.00 0.00 90 1012.4
20260502023048 48 121 2.0 2.0 0.00 0.00 0.00 90 1012.6
20260502022545 48 145 0.0 2.0 0.00 0.00 0.00 89 1012.6
20260502022043 48 117 0.0 2.0 0.00 0.00 0.00 88 1012.8
20260502021540 48 300 0.0 0.0 0.00 0.00 0.00 88 1013.0
20260502021036 49 300 0.0 0.0 0.00 0.00 0.00 87 1013.0
20260502020534 48 90 0.0 1.0 0.00 0.00 0.00 86 1013.2
20260502020031 49 240 0.0 2.0 0.00 0.00 0.00 86 1013.0
20260502015529 49 126 0.0 2.0 0.00 0.00 0.00 86 1013.0
20260502015025 49 279 0.0 2.0 0.00 0.00 0.00 84 1013.0
20260502014522 49 157 1.0 2.0 0.00 0.00 0.00 84 1012.7
20260502014019 49 203 0.0 2.0 0.00 0.00 0.00 83 1012.6
20260502013514 49 180 0.0 2.0 0.00 0.00 0.00 82 1012.3
20260502013011 49 171 2.0 2.0 0.00 0.00 0.00 81 1012.4
20260502012508 50 145 1.0 2.0 0.00 0.00 0.00 80 1012.5
20260502012006 50 187 1.0 2.0 0.00 0.00 0.00 80 1012.4
20260502011502 50 131 2.0 3.0 0.00 0.00 0.00 79 1012.2
20260502010959 50 198 2.0 4.0 0.00 0.00 0.00 78 1012.3
20260502010456 50 127 2.0 3.0 0.00 0.00 0.00 77 1012.4
20260502005952 50 154 0.0 1.0 0.00 0.00 0.00 75 1012.3
20260502005450 51 164 0.0 3.0 0.00 0.00 0.00 74 1012.4
20260502004948 51 168 1.0 3.0 0.00 0.00 0.00 73 1012.3
20260502004443 51 198 0.0 3.0 0.00 0.00 0.00 72 1012.2
20260502003940 51 152 0.0 3.0 0.00 0.00 0.00 72 1012.2
20260502003438 52 146 3.0 4.0 0.00 0.00 0.00 70 1012.3
20260502002934 52 149 0.0 3.0 0.00 0.00 0.00 69 1012.0
20260502002431 52 180 1.0 3.0 0.00 0.00 0.00 69 1012.1
20260502001929 52 175 1.0 5.0 0.00 0.00 0.00 67 1012.1
20260502001426 52 117 1.0 5.0 0.00 0.00 0.00 66 1011.9
20260502000924 53 120 1.0 3.0 0.00 0.00 0.00 65 1012.1
20260502000424 53 0 0.0 4.0 0.00 0.00 0.00 65 1012.0
20260501235918 53 192 2.0 3.0 0.00 0.00 0.00 64 1011.9
20260501235414 54 240 0.0 3.0 0.00 0.00 0.00 64 1011.9
20260501234909 54 127 0.0 5.0 0.00 0.00 0.00 63 1011.7
20260501234406 54 138 3.0 5.0 0.00 0.00 0.00 62 1011.8
20260501233904 55 249 6.0 6.0 0.00 0.00 0.00 61 1011.4
20260501233402 55 195 0.0 4.0 0.00 0.00 0.00 60 1011.7
20260501232857 56 180 1.0 5.0 0.00 0.00 0.00 58 1011.2
20260501232355 56 205 6.0 7.0 0.00 0.00 0.00 56 1011.3
20260501231852 57 140 3.0 5.0 0.00 0.00 0.00 56 1011.3
20260501231350 57 188 2.0 7.0 0.00 0.00 0.00 56 1011.4
20260501230848 58 180 0.0 7.0 0.00 0.00 0.00 55 1011.4
20260501230347 59 146 4.0 4.0 0.00 0.00 0.00 55 1011.2
20260501225843 59 212 3.0 12.0 0.00 0.00 0.00 53 1011.2
20260501225341 60 151 1.0 6.0 0.00 0.00 0.00 53 1011.0
20260501224837 60 270 0.0 3.0 0.00 0.00 0.00 52 1011.0
20260501224335 61 180 3.0 6.0 0.00 0.00 0.00 50 1010.9
20260501223831 62 194 1.0 4.0 0.00 0.00 0.00 45 1010.9
20260501223327 63 81 0.0 3.0 0.00 0.00 0.00 43 1010.9
20260501222823 63 241 2.0 4.0 0.00 0.00 0.00 42 1010.7
20260501222320 63 246 1.0 5.0 0.00 0.00 0.00 42 1010.9
20260501221817 63 212 3.0 6.0 0.00 0.00 0.00 42 1010.8
20260501221314 63 251 3.0 5.0 0.00 0.00 0.00 41 1010.8
20260501220812 64 188 0.0 4.0 0.00 0.00 0.00 43 1010.6
20260501220309 64 144 3.0 3.0 0.00 0.00 0.00 42 1010.8
20260501215806 64 227 3.0 5.0 0.00 0.00 0.00 40 1011.0
20260501215305 64 255 1.0 6.0 0.00 0.00 0.00 42 1010.6
20260501214757 64 252 3.0 6.0 0.00 0.00 0.00 40 1010.8
20260501214253 64 206 3.0 4.0 0.00 0.00 0.00 40 1010.7
20260501213749 64 270 0.0 4.0 0.00 0.00 0.00 39 1010.7
20260501213246 64 265 0.0 4.0 0.00 0.00 0.00 39 1010.8
20260501212742 64 270 3.0 7.0 0.00 0.00 0.00 40 1011.0
20260501212238 64 254 3.0 7.0 0.00 0.00 0.00 41 1010.9
20260501211736 65 267 3.0 7.0 0.00 0.00 0.00 41 1010.9
20260501211232 64 250 3.0 4.0 0.00 0.00 0.00 41 1010.7
20260501210730 65 291 0.0 6.0 0.00 0.00 0.00 43 1011.0
20260501210226 65 249 3.0 6.0 0.00 0.00 0.00 42 1010.6
20260501205723 65 213 5.0 6.0 0.00 0.00 0.00 42 1010.9
20260501205220 65 281 2.0 5.0 0.00 0.00 0.00 43 1011.1
20260501204717 65 215 3.0 7.0 0.00 0.00 0.00 42 1010.9
20260501204213 66 259 3.0 6.0 0.00 0.00 0.00 41 1010.8
20260501203709 66 97 0.0 5.0 0.00 0.00 0.00 41 1011.0
20260501203207 66 208 2.0 4.0 0.00 0.00 0.00 41 1010.7
20260501202704 66 287 3.0 6.0 0.00 0.00 0.00 41 1010.6
20260501202201 67 274 5.0 7.0 0.00 0.00 0.00 39 1010.7
20260501201657 68 261 2.0 8.0 0.00 0.00 0.00 37 1010.6
20260501201154 68 265 4.0 5.0 0.00 0.00 0.00 36 1010.9
20260501200651 68 246 5.0 6.0 0.00 0.00 0.00 38 1010.8
20260501200149 68 265 4.0 6.0 0.00 0.00 0.00 36 1010.7
20260501195646 68 264 3.0 3.0 0.00 0.00 0.00 38 1010.7
20260501195141 68 208 3.0 4.0 0.00 0.00 0.00 37 1011.0
20260501194637 67 315 3.0 6.0 0.00 0.00 0.00 37 1011.0
20260501194132 67 234 0.0 5.0 0.00 0.00 0.00 39 1010.9
20260501193631 67 246 5.0 5.0 0.00 0.00 0.00 41 1010.8
20260501193129 66 327 2.0 5.0 0.00 0.00 0.00 42 1011.1
20260501192625 66 170 3.0 7.0 0.00 0.00 0.00 45 1011.1
20260501192123 67 253 3.0 6.0 0.00 0.00 0.00 43 1011.1
20260501191620 68 233 3.0 7.0 0.00 0.00 0.00 39 1011.3
20260501191117 68 199 4.0 6.0 0.00 0.00 0.00 38 1011.2
20260501190613 68 282 2.0 8.0 0.00 0.00 0.00 39 1011.4
20260501190109 68 270 3.0 5.0 0.00 0.00 0.00 37 1011.4
20260501185605 68 297 2.0 4.0 0.00 0.00 0.00 40 1011.5
20260501185101 67 216 0.0 4.0 0.00 0.00 0.00 38 1011.5
20260501184557 66 278 5.0 5.0 0.00 0.00 0.00 37 1011.6
20260501184052 66 246 3.0 7.0 0.00 0.00 0.00 40 1011.7
20260501183549 66 232 3.0 6.0 0.00 0.00 0.00 39 1011.9
20260501183045 68 319 2.0 6.0 0.00 0.00 0.00 45 1011.8
20260501182542 66 126 4.0 7.0 0.00 0.00 0.00 40 1011.7
20260501182039 66 72 3.0 5.0 0.00 0.00 0.00 40 1011.9
20260501181536 66 281 6.0 6.0 0.00 0.00 0.00 39 1011.9
20260501181033 65 147 2.0 7.0 0.00 0.00 0.00 38 1011.8
20260501180531 66 225 0.0 6.0 0.00 0.00 0.00 41 1012.1
20260501180027 65 150 2.0 6.0 0.00 0.00 0.00 42 1011.9
20260501175524 65 150 2.0 6.0 0.00 0.00 0.00 42 1011.9
20260501175020 63 184 2.0 3.0 0.00 0.00 0.00 44 1012.0
20260501174518 63 184 2.0 3.0 0.00 0.00 0.00 44 1012.0
20260501174015 65 172 0.0 5.0 0.00 0.00 0.00 42 1011.9
20260501173512 64 206 1.0 6.0 0.00 0.00 0.00 45 1012.0
20260501173009 64 266 3.0 6.0 0.00 0.00 0.00 43 1012.1
20260501172504 64 203 0.0 5.0 0.00 0.00 0.00 45 1012.2
20260501172000 64 297 2.0 5.0 0.00 0.00 0.00 46 1012.2
20260501171456 63 185 3.0 5.0 0.00 0.00 0.00 47 1012.2